Regional Weather Roundup
Issued by NWS Columbia, SC

Home | Current Version | Previous Version | Text Only | Print | Product List | Glossary On
Versions: 1 2 3 4 5 6 7 8 9 10 11 12 13 14 15 16 17 18 19 20 21 22 23 24 25 26 27
000
ASUS42 KCAE 250810
RWRCAE
REGIONAL WEATHER ROUNDUP
NATIONAL WEATHER SERVICE COLUMBIA SC
400 AM EDT MON JUL 25 2016

NOTE: "FAIR" INDICATES FEW OR NO CLOUDS BELOW 12,000 FEET WITH NO
SIGNIFICANT WEATHER AND/OR OBSTRUCTIONS TO VISIBILITY.

NOT ALL STATIONS ARE QUALITY CONTROLLED BY THE NATIONAL
WEATHER SERVICE. USE DATA WITH CAUTION...ESPECIALLY
DEWPOINT OBSERVATIONS.

SCZ001>056-GAZ040-063>065-077-250900-
...UPSTATE SOUTH CAROLINA...

CITY           SKY/WX    TMP DP  RH WIND       PRES   REMARKS
ANDERSON       CLEAR     78  71  79 CALM      30.03S
LIBERTY        SUNNY     72  71  96 CALM      30.04R
SPARTANBURG    CLEAR     75  70  83 CALM      30.03S
CLEMSON        CLEAR     78  72  81 CALM      30.05R
GREENVILLE     CLEAR     80  70  71 CALM      30.05S
GREENWOOD      CLEAR     78  70  76 S10       30.04F
GREER          CLEAR     77  70  79 SW7       30.03S
ROCK HILL      CLEAR     76  72  87 SW5       30.04S
CHESTER        SUNNY     77  70  78 CALM      30.04S
LAURENS        SUNNY     77  72  83 SW3       30.03S


...CENTRAL SOUTH CAROLINA...

CITY           SKY/WX    TMP DP  RH WIND       PRES   REMARKS
COLUMBIA APT   CLEAR     81  72  74 S5        30.01F
COLUMBIA OWENS PTCLDY    80  75  84 VRB3        N/A
MCENTIRE ANGB  PTCLDY    76  75  95 SE1       30.03F
ORANGEBURG     CLOUDY    78  74  87 S3        30.04S
SUMTER SHAW    PTCLDY    78  74  87 S6        30.00F
NEWBERRY       SUNNY     77  72  83 S5        30.06S
AIKEN          FAIR      77  70  78 S8        30.06F
MANNING        FAIR      79  73  83 CALM      30.04S
LANCASTER      SUNNY     77  77 100 CALM      30.03S


...EASTERN AND COASTAL SOUTH CAROLINA...

CITY           SKY/WX    TMP DP  RH WIND       PRES   REMARKS
MYRTLE BEACH   PTCLDY    81  70  69 SW3       30.06F
N MYRTLE BCH   MOCLDY    82  77  84 SW8       30.04F
CONWAY         FAIR      73  73 100 CALM      30.04F
MARION           N/A     77  73  88 S5        30.03F
HARTSVILLE     FAIR      75  73  94 S3        30.02F
FLORENCE       CLEAR     78  75  90 S7        30.03F
DARLINGTON     PTCLDY    78  75  90 SW5       30.02F
CHARLESTON APT PTCLDY    78  74  87 S5        30.03F
MOUNT PLEASANT FAIR      79  75  89 CALM      30.04S
WALTERBORO     SUNNY     79  79 100 CALM      30.04F
BEAUFORT       CLEAR     79  75  87 SW3       30.03F


...EASTERN GEORGIA...

CITY           SKY/WX    TMP DP  RH WIND       PRES   REMARKS
AUGUSTA BUSH F CLOUDY    78  71  79 S5        30.01F
AUGUSTA DANIEL CLOUDY    82  69  64 S6        30.03F
WASHINGTON     FAIR      81  77  89 CALM      30.03S
CLAXTON        FAIR      74  73  98 CALM      30.03F
STATESBORO     CLEAR     79  73  83 S5        30.03F
SAVANNAH       CLEAR     78  73  84 SW5       30.04S


...SOUTHERN NORTH CAROLINA...

CITY           SKY/WX    TMP DP  RH WIND       PRES   REMARKS
CHARLOTTE      CLEAR     78  70  76 S6        30.03S
MONROE         CLEAR     77  72  84 SW5       30.03S
ROCKINGHAM     SUNNY     77  75  95 S6        30.02F
RUTHERFORDTON    N/A     73  73 100 CALM      30.05S
ASHEVILLE      CLEAR     70  67  90 CALM      30.13S

$$




USA.gov is the U.S. government's official web portal to all federal, state and local government web resources and services.